BAW4JW EGKK-EGPH

Flight info

Callsign BAW4JW
Flight time 2h 42m
Altitude 36000
Route LAM L10 BPK UN601 RIBEL DCT INPIP
Aircraft A319/M-SDE3FGHIRWY/LB1

Departure

Time 2026-04-25 16:40
Airport London Gatwick Airport (EGKK)

Arrival

Time 2026-04-25 19:22
Airport Edinburgh Airport (EGPH)
Time Latitude Longitude Altitude Speed Heading
2026-04-25 16:04 51.15517 -0.16719 213 ft 0 kts 348°
2026-04-25 16:29 51.15500 -0.16713 215 ft 4 kts 348°
2026-04-25 16:30 51.15475 -0.16705 212 ft 2 kts 348°
2026-04-25 16:30 51.15456 -0.16693 216 ft 4 kts 302°
2026-04-25 16:30 51.15450 -0.16655 214 ft 4 kts 261°
2026-04-25 16:30 51.15454 -0.16621 210 ft 1 kts 258°
2026-04-25 16:34 51.15446 -0.16683 213 ft 15 kts 262°
2026-04-25 16:35 51.15438 -0.16894 204 ft 22 kts 257°
2026-04-25 16:35 51.15397 -0.17152 210 ft 26 kts 244°
2026-04-25 16:35 51.15323 -0.17372 207 ft 19 kts 209°
2026-04-25 16:35 51.15284 -0.17572 208 ft 21 kts 259°
2026-04-25 16:36 51.15250 -0.17811 204 ft 23 kts 258°
2026-04-25 16:36 51.15239 -0.17897 207 ft 24 kts 258°
2026-04-25 16:36 51.15180 -0.18364 204 ft 28 kts 262°
2026-04-25 16:36 51.15136 -0.18679 206 ft 30 kts 257°
2026-04-25 16:37 51.15089 -0.19022 204 ft 33 kts 258°
2026-04-25 16:37 51.15038 -0.19392 209 ft 36 kts 258°
2026-04-25 16:37 51.14984 -0.19790 213 ft 38 kts 257°
2026-04-25 16:37 51.14926 -0.20209 208 ft 35 kts 258°
2026-04-25 16:38 51.14875 -0.20563 203 ft 34 kts 257°
2026-04-25 16:38 51.14824 -0.20946 209 ft 37 kts 258°
2026-04-25 16:38 51.14770 -0.21281 204 ft 28 kts 256°
2026-04-25 16:38 51.14736 -0.21395 207 ft 2 kts 216°
2026-04-25 16:39 51.14734 -0.21397 207 ft 0 kts 213°
2026-04-25 16:39 51.14730 -0.21399 206 ft 3 kts 200°
2026-04-25 16:39 51.14661 -0.21357 206 ft 17 kts 146°
2026-04-25 16:39 51.14538 -0.21263 202 ft 24 kts 129°
2026-04-25 16:40 51.14578 -0.20750 206 ft 87 kts 76°
2026-04-25 16:40 51.14766 -0.19384 208 ft 163 kts 77°
2026-04-25 16:40 51.15027 -0.17453 548 ft 191 kts 78°
2026-04-25 16:40 51.15313 -0.15300 1253 ft 200 kts 78°
2026-04-25 16:41 51.15585 -0.13143 2231 ft 197 kts 79°
2026-04-25 16:41 51.15757 -0.11699 2877 ft 196 kts 79°
2026-04-25 16:41 51.16410 -0.06810 5114 ft 187 kts 65°
2026-04-25 16:42 51.17095 -0.05130 6121 ft 178 kts 51°
2026-04-25 16:42 51.17868 -0.03614 6924 ft 168 kts 50°
2026-04-25 16:42 51.18600 -0.02203 7416 ft 172 kts 50°
2026-04-25 16:42 51.19409 -0.00628 7619 ft 195 kts 50°
2026-04-25 16:43 51.20318 0.01165 7840 ft 220 kts 51°
2026-04-25 16:43 51.21325 0.03177 8183 ft 244 kts 51°
2026-04-25 16:43 51.22430 0.05414 8593 ft 269 kts 51°
2026-04-25 16:43 51.23618 0.07853 9138 ft 284 kts 52°
2026-04-25 16:44 51.24719 0.10509 9901 ft 291 kts 64°
2026-04-25 16:44 51.25348 0.13598 10698 ft 295 kts 79°
2026-04-25 16:44 51.25728 0.16840 11511 ft 298 kts 79°
2026-04-25 16:44 51.26114 0.20116 12296 ft 302 kts 79°
2026-04-25 16:45 51.26505 0.23430 13062 ft 305 kts 79°
2026-04-25 16:45 51.26898 0.26783 13806 ft 309 kts 79°
2026-04-25 16:45 51.27537 0.30026 14492 ft 313 kts 62°
2026-04-25 16:45 51.28873 0.32760 15181 ft 315 kts 40°
2026-04-25 16:46 51.30749 0.34546 15856 ft 317 kts 19°
2026-04-25 16:46 51.32924 0.35133 16514 ft 319 kts 357°
2026-04-25 16:46 51.35125 0.34406 17162 ft 322 kts 338°
2026-04-25 16:46 51.35800 0.33977 17369 ft 322 kts 337°
2026-04-25 16:47 51.39282 0.31708 18435 ft 327 kts 337°
2026-04-25 16:47 51.41399 0.30323 19050 ft 330 kts 337°
2026-04-25 16:47 51.43061 0.29239 19527 ft 333 kts 337°
2026-04-25 17:54 51.43792 0.28770 19803 ft 329 kts 341°
2026-04-25 17:55 51.45941 0.27412 20324 ft 336 kts 340°
2026-04-25 17:55 51.47861 0.26191 20786 ft 339 kts 339°
2026-04-25 17:55 51.50062 0.24770 21323 ft 342 kts 338°
2026-04-25 17:55 51.52274 0.23320 21855 ft 345 kts 338°
2026-04-25 17:56 51.54505 0.21843 22371 ft 348 kts 337°
2026-04-25 17:56 51.56752 0.20351 22874 ft 351 kts 337°
2026-04-25 17:56 51.59016 0.18851 23374 ft 353 kts 337°
2026-04-25 17:56 51.61296 0.17340 23859 ft 356 kts 336°
2026-04-25 17:57 51.63469 0.15404 24329 ft 359 kts 324°
2026-04-25 17:57 51.65367 0.12775 24667 ft 366 kts 313°
2026-04-25 17:57 51.66933 0.09462 24796 ft 378 kts 302°
2026-04-25 17:57 51.67882 0.07073 24882 ft 387 kts 302°
2026-04-25 17:58 51.69866 0.02091 25052 ft 403 kts 302°
2026-04-25 17:58 51.71404 -0.01755 25254 ft 411 kts 302°
2026-04-25 17:58 51.72968 -0.05633 25606 ft 415 kts 304°
2026-04-25 17:58 51.74800 -0.09267 25980 ft 419 kts 314°
2026-04-25 17:59 51.76987 -0.12382 26360 ft 422 kts 323°
2026-04-25 17:59 51.79466 -0.14944 26741 ft 424 kts 329°
2026-04-25 17:59 51.82020 -0.17363 27126 ft 427 kts 329°
2026-04-25 17:59 51.84587 -0.19800 27492 ft 429 kts 329°
2026-04-25 18:00 51.87173 -0.22263 27851 ft 432 kts 329°
2026-04-25 18:00 51.89769 -0.24742 28207 ft 435 kts 329°
2026-04-25 18:00 51.92379 -0.27242 28560 ft 437 kts 329°
2026-04-25 18:00 51.94999 -0.29757 28904 ft 439 kts 329°
2026-04-25 18:01 51.97630 -0.32285 29240 ft 441 kts 329°
2026-04-25 18:01 52.00276 -0.34831 29556 ft 443 kts 329°
2026-04-25 18:01 52.02902 -0.37359 29869 ft 445 kts 329°
2026-04-25 18:01 52.05574 -0.39934 30170 ft 448 kts 329°
2026-04-25 18:02 52.08256 -0.42524 30463 ft 450 kts 329°
2026-04-25 18:02 52.10951 -0.45128 30758 ft 452 kts 329°
2026-04-25 18:02 52.13659 -0.47746 31032 ft 454 kts 329°
2026-04-25 18:02 52.16377 -0.50380 31297 ft 456 kts 329°
2026-04-25 18:03 52.19100 -0.53026 31622 ft 456 kts 329°
2026-04-25 18:03 52.21823 -0.55672 32004 ft 455 kts 329°
2026-04-25 18:03 52.24537 -0.58305 32374 ft 454 kts 329°
2026-04-25 18:03 52.27252 -0.60939 32733 ft 453 kts 329°
2026-04-25 18:04 52.29958 -0.63575 33098 ft 453 kts 329°
2026-04-25 18:04 52.32656 -0.66219 33463 ft 452 kts 328°
2026-04-25 18:04 52.35349 -0.68864 33823 ft 451 kts 328°
2026-04-25 18:04 52.38039 -0.71507 34188 ft 450 kts 328°
2026-04-25 18:05 52.40723 -0.74142 34546 ft 450 kts 329°
2026-04-25 18:05 52.43404 -0.76776 34898 ft 449 kts 328°
2026-04-25 18:05 52.46080 -0.79410 35236 ft 448 kts 328°
2026-04-25 18:05 52.48752 -0.82045 35560 ft 448 kts 328°
2026-04-25 18:06 52.51419 -0.84676 35881 ft 447 kts 328°
2026-04-25 18:06 52.54042 -0.87264 35999 ft 446 kts 328°
2026-04-25 18:06 52.56736 -0.89929 36010 ft 444 kts 328°
2026-04-25 18:07 52.62024 -0.95179 36009 ft 444 kts 328°
2026-04-25 18:07 52.67317 -1.00444 36009 ft 443 kts 328°
2026-04-25 18:08 52.72591 -1.05713 36008 ft 443 kts 328°
2026-04-25 18:08 52.77868 -1.10986 36009 ft 443 kts 328°
2026-04-25 18:09 52.83102 -1.16234 36008 ft 443 kts 328°
2026-04-25 18:09 52.88366 -1.21539 36009 ft 443 kts 328°
2026-04-25 18:10 52.93635 -1.26854 36011 ft 443 kts 328°
2026-04-25 18:10 52.98885 -1.32171 36008 ft 443 kts 328°
2026-04-25 18:11 53.04143 -1.37508 36004 ft 443 kts 328°
2026-04-25 18:11 53.09397 -1.42866 36004 ft 442 kts 328°
2026-04-25 18:12 53.14638 -1.48227 35995 ft 443 kts 328°
2026-04-25 18:12 53.19895 -1.53595 35993 ft 443 kts 328°
2026-04-25 18:13 53.25151 -1.58977 35994 ft 443 kts 328°
2026-04-25 18:13 53.30406 -1.64385 35994 ft 444 kts 328°
2026-04-25 18:14 53.38249 -1.72497 35996 ft 443 kts 328°
2026-04-25 18:14 53.43494 -1.77954 35998 ft 444 kts 328°
2026-04-25 18:15 53.48734 -1.83419 35993 ft 444 kts 328°
2026-04-25 18:15 53.53987 -1.88893 35995 ft 444 kts 328°
2026-04-25 18:16 53.59247 -1.94376 35993 ft 445 kts 328°
2026-04-25 18:17 53.67123 -2.02651 35998 ft 445 kts 327°
2026-04-25 18:17 53.72367 -2.08200 36001 ft 445 kts 327°
2026-04-25 18:18 53.77922 -2.12757 36001 ft 445 kts 338°
2026-04-25 18:18 53.83671 -2.16660 36002 ft 445 kts 338°
2026-04-25 18:19 53.89414 -2.20577 36005 ft 445 kts 338°
2026-04-25 18:19 53.95150 -2.24520 36009 ft 445 kts 338°
2026-04-25 18:20 54.00880 -2.28463 36010 ft 444 kts 338°
2026-04-25 18:20 54.06608 -2.32412 36010 ft 444 kts 338°
2026-04-25 18:21 54.12338 -2.36378 36011 ft 444 kts 338°
2026-04-25 18:21 54.18021 -2.40323 35997 ft 444 kts 337°
2026-04-25 18:22 54.23751 -2.44301 35997 ft 445 kts 338°
2026-04-25 18:22 54.29478 -2.48298 35999 ft 445 kts 337°
2026-04-25 18:23 54.34278 -2.51659 36004 ft 444 kts 337°
2026-04-25 18:59 54.38623 -2.54681 35998 ft 442 kts 337°
2026-04-25 19:00 54.44308 -2.58677 35604 ft 443 kts 337°
2026-04-25 19:00 54.47195 -2.60720 34697 ft 452 kts 337°
2026-04-25 19:01 54.52967 -2.64829 34927 ft 449 kts 337°
2026-04-25 19:01 54.55881 -2.66900 35027 ft 445 kts 337°
2026-04-25 19:01 54.58744 -2.68933 34496 ft 445 kts 337°
2026-04-25 19:01 54.61608 -2.70972 33867 ft 446 kts 337°
2026-04-25 19:02 54.67332 -2.75050 32774 ft 442 kts 337°
2026-04-25 19:02 54.70128 -2.77043 32283 ft 439 kts 337°
2026-04-25 19:02 54.72974 -2.79074 31794 ft 435 kts 337°
2026-04-25 19:03 54.76662 -2.81707 31131 ft 430 kts 337°
2026-04-25 19:03 54.81234 -2.84978 30307 ft 425 kts 337°
2026-04-25 19:03 54.83988 -2.86959 29803 ft 421 kts 337°
2026-04-25 19:04 54.89352 -2.90837 28823 ft 414 kts 337°
2026-04-25 19:04 54.91971 -2.92729 28342 ft 411 kts 337°
2026-04-25 19:05 54.97211 -2.96518 27369 ft 405 kts 337°
2026-04-25 19:05 55.02370 -3.00254 26410 ft 399 kts 337°
2026-04-25 19:05 55.04920 -3.02113 25951 ft 396 kts 337°
2026-04-25 19:06 55.07451 -3.03962 25493 ft 393 kts 337°
2026-04-25 19:06 55.12772 -3.05657 24603 ft 389 kts 355°
2026-04-25 19:06 55.15461 -3.06034 24152 ft 386 kts 355°
2026-04-25 19:07 55.20787 -3.06762 23253 ft 381 kts 355°
2026-04-25 19:07 55.23413 -3.07118 22787 ft 379 kts 355°
2026-04-25 19:08 55.28644 -3.07839 21853 ft 374 kts 355°
2026-04-25 19:08 55.31227 -3.08198 21389 ft 371 kts 355°
2026-04-25 19:09 55.38870 -3.09256 19955 ft 363 kts 355°
2026-04-25 19:09 55.40532 -3.09486 19641 ft 361 kts 355°
2026-04-25 19:09 55.46338 -3.10288 18548 ft 355 kts 355°
2026-04-25 19:10 55.48763 -3.10629 18069 ft 352 kts 355°
2026-04-25 19:10 55.51197 -3.10976 17700 ft 347 kts 355°
2026-04-25 19:10 55.53562 -3.11309 17573 ft 334 kts 355°
2026-04-25 19:10 55.55847 -3.11626 17366 ft 326 kts 355°
2026-04-25 19:11 55.58093 -3.11937 17035 ft 322 kts 355°
2026-04-25 19:11 55.60317 -3.12248 16661 ft 320 kts 355°
2026-04-25 19:11 55.62529 -3.12563 16279 ft 318 kts 355°
2026-04-25 19:11 55.64724 -3.12877 15906 ft 316 kts 355°
2026-04-25 19:12 55.66892 -3.13213 15707 ft 308 kts 351°
2026-04-25 19:12 55.68827 -3.14543 15581 ft 296 kts 322°
2026-04-25 19:12 55.70154 -3.17252 15111 ft 297 kts 297°
2026-04-25 19:12 55.70730 -3.20821 14321 ft 309 kts 272°
2026-04-25 19:13 55.70473 -3.24646 13417 ft 319 kts 251°
2026-04-25 19:13 55.69361 -3.28019 12756 ft 321 kts 226°
2026-04-25 19:13 55.67547 -3.30284 12301 ft 320 kts 204°
2026-04-25 19:13 55.65467 -3.31701 11833 ft 320 kts 200°
2026-04-25 19:14 55.63378 -3.33017 11381 ft 318 kts 200°
2026-04-25 19:14 55.62700 -3.33441 11239 ft 317 kts 200°
2026-04-25 19:14 55.59835 -3.37197 10526 ft 311 kts 238°
2026-04-25 19:14 55.59069 -3.40723 10124 ft 307 kts 263°
2026-04-25 19:15 55.59249 -3.44381 9992 ft 295 kts 289°
2026-04-25 19:15 55.60273 -3.47425 9800 ft 287 kts 314°
2026-04-25 19:15 55.61866 -3.49505 9476 ft 285 kts 328°
2026-04-25 19:15 55.63561 -3.51285 9237 ft 279 kts 329°
2026-04-25 19:16 55.65211 -3.52981 9115 ft 270 kts 329°
2026-04-25 19:16 55.66809 -3.54616 8988 ft 261 kts 329°
2026-04-25 19:16 55.68362 -3.56202 8862 ft 253 kts 329°
2026-04-25 19:16 55.69867 -3.57736 8722 ft 246 kts 329°
2026-04-25 19:17 55.71379 -3.59276 8202 ft 255 kts 329°
2026-04-25 19:17 55.72940 -3.60868 7710 ft 263 kts 329°
2026-04-25 19:17 55.74545 -3.62506 7204 ft 269 kts 329°
2026-04-25 19:17 55.76187 -3.64184 6699 ft 275 kts 329°
2026-04-25 19:18 55.77858 -3.65893 6197 ft 279 kts 329°
2026-04-25 19:18 55.79556 -3.67630 5653 ft 284 kts 329°
2026-04-25 19:18 55.81349 -3.69164 5069 ft 290 kts 344°
2026-04-25 19:18 55.83367 -3.69314 4491 ft 295 kts 11°
2026-04-25 19:19 55.85246 -3.67866 3914 ft 299 kts 35°
2026-04-25 19:19 55.86690 -3.65249 3515 ft 295 kts 56°
2026-04-25 19:19 55.87481 -3.61944 3147 ft 284 kts 74°
2026-04-25 19:19 55.87644 -3.60853 3031 ft 278 kts 76°
2026-04-25 19:20 55.88672 -3.55872 2683 ft 243 kts 64°
2026-04-25 19:20 55.89470 -3.53255 2368 ft 238 kts 59°
2026-04-25 19:20 55.90294 -3.50819 2000 ft 218 kts 57°
2026-04-25 19:20 55.91073 -3.48606 1519 ft 204 kts 57°
2026-04-25 19:21 55.91811 -3.46542 1050 ft 191 kts 57°
2026-04-25 19:21 55.93067 -3.42885 590 ft 167 kts 58°
2026-04-25 19:21 55.93669 -3.41122 417 ft 167 kts 58°
2026-04-25 19:22 55.94285 -3.39327 235 ft 169 kts 58°
2026-04-25 19:22 55.94865 -3.37643 114 ft 148 kts 59°
2026-04-25 19:22 55.95516 -3.35730 113 ft 36 kts 59°
2026-04-25 19:23 55.95558 -3.35509 111 ft 11 kts 120°
2026-04-25 19:23 55.95428 -3.35430 115 ft 11 kts 230°
2026-04-25 19:23 55.95381 -3.35553 116 ft 13 kts 236°
2026-04-25 19:24 55.95328 -3.35708 115 ft 16 kts 239°
2026-04-25 19:24 55.95265 -3.35888 116 ft 18 kts 238°
2026-04-25 19:24 55.95113 -3.35847 114 ft 16 kts 118°
2026-04-25 19:25 55.94939 -3.35847 113 ft 16 kts 152°
2026-04-25 19:25 55.94885 -3.35709 115 ft 13 kts 117°
2026-04-25 19:25 55.94846 -3.35636 115 ft 8 kts 193°
2026-04-25 19:26 55.94810 -3.35670 113 ft 4 kts 210°
2026-04-25 19:26 55.94795 -3.35686 115 ft 0 kts 208°